Back to catalog

THORAD AGENA D DEB

AliveLEO
NORAD 4988·DEBRIS·🇺🇸 United States

Launched Apr 8, 1970 from Vandenberg Space Force Base

Loading…

Next Passes

TLE

Source: Space-Track
1 04988U 70025HJ  26228.24982766  .00000239  00000-0  34218-3 0  9992
2 04988 100.0300 224.8846 0016723 126.8200 246.1246 13.67178019792036

Track THORAD AGENA D DEB in real time with AllMySat

Download on the App Store